Location: Grandview
(34.8900°N, 117.1058°W)
Time: 01:57:43
(UTC-08:00)

N. Korean satellite - Pass Details

Date: 10 October 2017
Orbit: 461 x 513 km, 97.2° (Epoch: 14 December)

Event Time Altitude Azimuth Distance (km) Brightness Sun altitude
Rises 19:32:05 0° 192° (SSW) 2,568 10.4 -15.7°
Reaches altitude 10° 19:34:25 10° 205° (SSW) 1,681 9.6 -16.2°
Maximum altitude 19:37:29 26° 263° (W) 997 9.0 -16.8°
Drops below altitude 10° 19:40:31 10° 321° (NW) 1,665 9.8 -17.4°
Sets 19:42:49 0° 335° (NNW) 2,539 10.6 -17.9°
